Regional Weather Roundup
Issued by NWS Newport/Morehead, NC

Current Version | Previous Version | Text Only | Print | Product List | Glossary On
Versions: 1 2 3 4 5 6 7 8 9 10 11 12 13 14 15 16 17 18 19 20 21 22 23 24 25 26 27 28 29 30 31 32 33 34 35 36 37 38 39 40 41 42 43 44 45 46 47 48 49 50
775
ASUS42 KMHX 280725
RWRMHX
WEATHER ROUNDUP FOR EASTERN NORTH CAROLINA
NATIONAL WEATHER SERVICE NEWPORT/MOREHEAD CITY NC
300 AM EDT SAT MAY 28 2016

NOTE: "FAIR" INDICATES FEW OR NO CLOUDS BELOW 12,000 FEET
WITH NO SIGNIFICANT WEATHER AND/OR OBSTRUCTIONS TO VISIBILITY

NCZ015>017-031-032-045>047-102-103-280800-
NORTH COAST

CITY           SKY/WX    TMP DP  RH WIND       PRES   REMARKS
EDENTON        CLEAR    N/A N/A N/A CALM      30.16S
ELIZABETH CITY CLEAR     63  61  93 CALM      30.15S
KITTY HAWK     SUNNY     63  61  93 CALM      30.14S
MANTEO         NOT AVBL

$$

NCZ045>047-081-094-103-104-280800-
CENTRAL COAST

CITY           SKY/WX    TMP DP  RH WIND       PRES   REMARKS
FRISCO         PTCLDY    73  68  84 SE8       30.14F

$$

NCZ095-097-098-100-101-280800-
SOUTHERN COAST

CITY           SKY/WX    TMP DP  RH WIND       PRES   REMARKS
BEAUFORT       CLEAR     68  66  93 CALM      30.12F
CEDAR ISLAND   NOT AVBL
JACKSONVILLE   PTCLDY    67  62  84 N5        30.12F
PINEY ISLAND   SUNNY    N/A N/A N/A CALM      30.13F
WILMINGTON     PTCLDY    65  63  93 NE5       30.11F


$$

NCZ011>013-027>030-043-044-078>080-089-090>093-098-280800-
COASTAL PLAIN

CITY           SKY/WX    TMP DP  RH WIND       PRES   REMARKS
AHOSKIE        CLEAR     58  58  97 CALM      30.15F FOG
CLINTON        CLEAR     61  60  97 CALM      30.14S
ELIZABETHTOWN  CLEAR     63  62  97 CALM      30.13S
GOLDSBORO      CLOUDY    59  59 100 E1        30.13S
GREENVILLE     CLEAR     59  59 100 CALM      30.16S FOG
HAVELOCK       PTCLDY    66  62  87 CALM      30.14F
KENANSVILLE    PTCLDY    57  56  95 CALM      30.15S
KINSTON        CLEAR     59  58  97 CALM      30.15F
NEW BERN       CLEAR     63  60  90 CALM      30.15S
RICHLANDS      PTCLDY    60  59  96 CALM      30.14S
ROCKY MOUNT    CLEAR     59  58  96 CALM      30.15F
WASHINGTON     CLEAR     60  59  95 CALM      30.15S
WHITEVILLE     CLEAR     63  61  94 CALM      30.12S

$$

AMZ130-135-150-152-154-156-158-170-250-252-270-ANZ085-086-088-633-658-670-280800-
MARINE OBSERVATIONS

STATION/POSITION TIME  TEMP    WIND        PRES    WAVE   SWELL
                       AIR SEA DIR/SP/G            HT/PER HT/PER
                 (UTC) (F)     (DEG/KT/KT) (MB)    (FT/S) (FT/S)
CHESAPEAKE LIGHT 0700   68     190/ 11/ 12 1021.6
64 E VA BEACH    0650   66 61  190/  6/  6 1020.9    3/ 8   2/ 8
DUCK             0700   65 59  150/  5/  5 1020.4
2 E DUCK         0611      63                N/A     2/ 7
OREGON INLET     0700   67 79   90/  4/  4 1020.8
13E OREGON INLT  0600      67                N/A     3/ 7   3/ 7
HATTERAS CG      0700   74 74  110/  6/ 10 1020.0
DIAMOND BUOY     0650   76 78  120/ 14/ 16 1020.2    4/ 8   2/ 8
CAPE LOOKOUT     0700   74     100/  6/  7 1019.7
BEAUFORT LAB     0700   72 73   CALM  /  3 1019.3
30 SE NEW RVR IN 0625      74                N/A     4/ 7
27 SE WRIGHTSVLE 0708   76 74  110/  8/ 12 1018.6
5 SE WRIGHTSVLE  0708   74 74   70/  6/ 10 1020.0
225 S CAPE HAT   0650   76 77   90/ 17/ 19 1017.0    6/ 8   5/ 8
41 SE CHARLESTON 0650   76 76   60/ 10/ 14 1017.3    4/ 6   3/ 6

$$




USA.gov is the U.S. government's official web portal to all federal, state and local government web resources and services.